Location: Lecco
(45.8566°N, 9.3977°E)
Time: 04:38:42
(UTC+02:00)

Transit 4A - Pass Details

Date: 15 August 2020
Orbit: 863 x 982 km, 66.8° (Epoch: 23 September)

Event Time Altitude Azimuth Distance (km) Brightness Sun altitude
Rises 11:45:58 0° 266° (W) 3,532 10.7 51.6°
Reaches altitude 10° 11:49:12 10° 283° (WNW) 2,616 10.1 51.9°
Maximum altitude 11:53:31 20° 329° (NNW) 2,039 9.6 52.4°
Drops below altitude 10° 11:57:57 10° 14° (NNE) 2,682 10.2 52.9°
Sets 12:01:20 0° 32° (NNE) 3,651 10.9 53.3°
